Location: Ferchesar
(52.6477°N, 12.4298°E)
Time: 17:14:35
(UTC+01:00)

Explorer 7 - Pass Details

Date: 15 December 2021
Orbit: 483 x 674 km, 50.3° (Epoch: 23 January)

Event Time Altitude Azimuth Distance (km) Brightness Sun altitude
Rises 01:57:10 0° 221° (SW) 2,964 - -53.7°
Reaches altitude 10° 01:59:46 10° 210° (SSW) 2,031 - -53.4°
Maximum altitude 02:03:49 29° 151° (SSE) 1,133 - -53.0°
Drops below altitude 10° 02:07:41 10° 91° (E) 1,940 - -52.5°
Sets 02:10:06 0° 80° (E) 2,808 - -52.3°
